Regional Weather Roundup
Issued by NWS

Home | Current Version | Previous Version | Text Only | Print | Product List | Glossary On
Versions: 1 2 3 4 5 6 7 8 9 10 11 12 13 14 15 16 17 18 19 20 21 22 23 24 25 26 27 28 29 30 31 32 33 34 35 36 37 38 39 40 41 42 43 44 45 46 47 48 49 50
000
ASUS43 KOAX 301410
RWRNE

WEATHER ROUNDUP FOR NEBRASKA
NATIONAL WEATHER SERVICE OMAHA NE
900 AM CDT THU JUL 30 2015

NOTES: SATELLITE DATA IS BEING USED TO AUGMENT CLOUD COVER ABOVE
       12000 FEET.
       "FAIR" INDICATES FEW OR NO CLOUDS BELOW 12,000 FEET WITH NO
       SIGNIFICANT WEATHER AND/OR OBSTRUCTIONS TO VISIBILITY.

  * THESE STATIONS DO NOT REPORT WEATHER SUCH AS RAIN...SNOW OR FOG.

NEZ001>004-019>022-054>056-301500-
NEBRASKA PANHANDLE

CITY           SKY/WX    TMP DP  RH WIND       PRES   REMARKS
SCOTTSBLUFF    SUNNY     67  54  63 NE5       30.30R
ALLIANCE       SUNNY     67  54  63 S6        30.29R
CHADRON        SUNNY     61  52  72 W3        30.28R
KIMBALL        SUNNY     64  53  66 W7        30.31R
SIDNEY         SUNNY     69  60  73 SW12      30.32R
$$

NEZ057>060-069>072-079>082-301500-
SOUTHWEST NEBRASKA

CITY           SKY/WX    TMP DP  RH WIND       PRES   REMARKS
NORTH PLATTE   SUNNY     68  58  70 CALM      30.27R
IMPERIAL       SUNNY     67  55  65 CALM      30.28R
LEXINGTON      SUNNY     71  63  75 S7        30.26S
MCCOOK         SUNNY     68  60  75 CALM      30.27R
OGALLALA       SUNNY     65  56  75 SW6       30.28S
$$

NEZ005>010-023>029-035>040-094-301500-
NORTH CENTRAL NEBRASKA

CITY           SKY/WX    TMP DP  RH WIND       PRES   REMARKS
VALENTINE      SUNNY     70  54  56 SW8       30.21F
AINSWORTH      SUNNY     71  56  59 SW7       30.23S
BROKEN BOW     SUNNY     70  60  70 W5        30.25R
O`NEILL        MOSUNNY   70  58  66 W7        30.24R
ORD            SUNNY     71  59  65 W6        30.22R
THEDFORD       SUNNY     72  56  55 SW12      30.26S
$$

NEZ041-046>049-061>064-073>077-083>087-301500-
SOUTH CENTRAL NEBRASKA

CITY           SKY/WX    TMP DP  RH WIND       PRES   REMARKS
GRAND ISLAND   SUNNY     74  61  63 SW12      30.23S
AURORA         SUNNY     70  65  83 SW8       30.23R
HASTINGS       SUNNY     71  61  70 S7        30.25R
HEBRON         SUNNY     70  63  79 CALM      30.25R
HOLDREGE       SUNNY     71  59  66 S7        30.27R
KEARNEY *      SUNNY     70  57  64 S8        30.25S
YORK           SUNNY     70  64  83 W7        30.23R
$$

NEZ011>018-030>034-042>045-301500-
NORTHEAST NEBRASKA

CITY           SKY/WX    TMP DP  RH WIND       PRES   REMARKS
NORFOLK        SUNNY     70  58  65 W6        30.21R
ALBION         SUNNY     72  58  63 W8        30.23R
BLAIR          SUNNY     68  58  70 W3        30.21R
COLUMBUS *     SUNNY     70  55  60 W5        30.21S
FREMONT        SUNNY     71  58  64 CALM      30.20S
TEKAMAH        SUNNY     72  62  71 S5        30.18S
WAYNE          SUNNY     71  60  68 W6        30.20R
$$

NEZ050>053-065>068-078-088>093-301500-
SOUTHEAST NEBRASKA

CITY           SKY/WX    TMP DP  RH WIND       PRES   REMARKS
LINCOLN        SUNNY     72  61  68 W6        30.22R
OMAHA EPPLEY   MOSUNNY   74  60  61 SW3       30.20R
BEATRICE       SUNNY     67  62  84 CALM      30.24R
FALLS CITY     SUNNY     71  66  84 SW3       30.22R
NEBRASKA CITY  SUNNY     71  62  72 W7        30.22R
PLATTSMOUTH    SUNNY     69  62  77 CALM      30.22R
$$

NEZ044-045-051>053-067-301500-
OMAHA AREA

CITY           SKY/WX    TMP DP  RH WIND       PRES   REMARKS
OMAHA EPPLEY   MOSUNNY   74  60  61 SW3       30.20R
BLAIR          SUNNY     68  58  70 W3        30.21R
FREMONT        SUNNY     71  58  64 CALM      30.20S
MILLARD        SUNNY     74  62  65 CALM      30.21R
OFFUTT AFB     SUNNY     72  61  68 W5        30.20R
PLATTSMOUTH    SUNNY     69  62  77 CALM      30.22R
WAHOO          FAIR      71  59  66 CALM      30.21R
$$



USA.gov is the U.S. government's official web portal to all federal, state and local government web resources and services.